Date_and_time,latitude,longitude,wind_speed,RelWindDirFrom,WindDirFrom,air_pressure,air_temperature,relative_humidity,Temp,platform_speed_wrt_ground,air_pressure_at_mean_sea_level,platform_orientation
2019-12-03 23:50,50.6304416666667,-96.9807716666667,5.1,8.4,281,971.76,-0.6,67,0.98,0.0,999.22,18.9
2019-12-04 00:00,50.6304383333333,-96.9807683333333,5.0,8.1,279,971.76,-0.6,67,0.98,0.0,999.21,14.5
2019-12-04 00:10,50.6304333333333,-96.98078,5.2,7.9,272,971.76,-0.6,67,0.99,0.0,999.20,14.5
2019-12-04 00:20,50.63044,-96.98077,6.1,10.4,280,971.83,-0.6,67,1.00,0.0,999.28,14.5
2019-12-04 00:30,50.6304433333333,-96.9807783333333,6.2,9.3,282,971.95,-0.6,68,1.00,0.0,999.41,14.5
2019-12-04 00:40,50.63044,-96.9807783333333,6.2,9.9,282,972.00,-0.7,68,1.01,0.0,999.47,14.5
2019-12-04 00:50,50.6304383333333,-96.9807766666667,6.6,9.5,281,972.10,-0.6,68,0.99,0.0,999.58,14.5
2019-12-04 01:00,50.6304366666667,-96.9807733333333,7.1,11.0,285,972.33,-0.6,69,0.99,0.0,999.82,142.0
2019-12-04 01:10,50.6304383333333,-96.980775,6.1,11.6,284,972.41,-0.5,69,0.99,0.0,999.89,142.0
2019-12-04 01:20,50.63044,-96.980775,6.1,9.7,286,972.42,-0.5,69,1.00,0.0,999.90,142.0
2019-12-04 01:30,50.6304416666667,-96.9807766666667,6.2,9.2,288,972.42,-0.5,69,1.00,0.0,999.90,142.0
2019-12-04 01:40,50.6304416666667,-96.9807766666667,6.0,8.9,288,972.45,-0.5,69,1.01,0.0,999.94,142.0
2019-12-04 01:50,50.6304433333333,-96.9807766666667,5.9,9.5,285,972.47,-0.5,70,1.00,0.0,999.95,142.0
2019-12-04 02:00,50.6304416666667,-96.980775,6.0,9.3,286,972.51,-0.6,70,1.00,0.0,1000.00,0.0
2019-12-04 02:10,50.6304433333333,-96.9807766666667,5.7,8.5,286,972.63,-0.6,71,0.99,0.0,1000.12,0.0
2019-12-04 02:20,50.6304416666667,-96.980775,5.8,8.8,280,972.79,-0.6,71,0.99,0.0,1000.30,0.0
2019-12-04 02:30,50.6304433333333,-96.9807766666667,5.7,9.2,282,972.84,-0.6,72,1.00,0.0,1000.35,0.0
2019-12-04 02:40,50.6304433333333,-96.9807766666667,5.4,8.8,285,972.88,-0.6,72,1.00,0.0,1000.39,0.0
2019-12-04 02:50,50.6304433333333,-96.9807766666667,7.3,11.1,290,972.91,-0.5,71,0.99,0.0,1000.41,0.0
2019-12-04 03:00,50.6304433333333,-96.9807766666667,6.4,11.2,295,972.99,-0.4,72,0.99,0.0,1000.48,270.0
2019-12-04 03:10,50.6304433333333,-96.980775,7.0,12.3,300,973.03,-0.4,72,1.00,0.0,1000.52,270.0
2019-12-04 03:20,50.6304433333333,-96.980775,8.2,15.3,306,973.08,-0.4,72,1.01,0.0,1000.57,270.0
2019-12-04 03:30,50.6304333333333,-96.9807733333333,8.6,13.7,307,973.13,-0.4,73,1.01,0.0,1000.63,270.0
2019-12-04 03:40,50.6304366666667,-96.9807683333333,7.1,12.1,303,973.26,-0.5,73,1.00,0.0,1000.76,270.0
2019-12-04 03:50,50.6304383333333,-96.980775,7.4,11.5,300,973.34,-0.5,74,0.99,0.0,1000.85,270.0
2019-12-04 04:00,50.6304366666667,-96.980775,6.3,11.1,299,973.44,-0.5,74,0.98,0.0,1000.95,0.0
2019-12-04 04:10,50.6304466666667,-96.9808016666667,6.5,11.9,296,973.59,-0.5,75,0.97,0.0,1001.11,0.0
2019-12-04 04:20,50.6304266666667,-96.980755,8.9,13.1,300,973.69,-0.5,75,0.97,0.0,1001.21,0.0
2019-12-04 04:30,50.6304466666667,-96.9807666666667,7.0,11.9,298,973.82,-0.6,76,0.97,0.0,1001.35,0.0
2019-12-04 04:40,50.63043,-96.9807516666667,8.0,12.9,303,973.81,-0.6,76,0.98,0.0,1001.33,0.0
2019-12-04 04:50,50.6304366666667,-96.98076,9.5,13.4,308,973.83,-0.6,76,1.00,0.0,1001.35,0.0
2019-12-04 05:00,50.630435,-96.9807566666667,9.3,14.5,305,973.93,-0.7,77,1.00,0.0,1001.46,119.2
2019-12-04 05:10,50.63043,-96.98075,8.6,13.9,305,974.07,-0.7,77,0.99,0.0,1001.60,119.2
2019-12-04 05:20,50.6304266666667,-96.9807583333333,7.5,11.8,307,974.20,-0.7,77,0.99,0.0,1001.73,119.2
2019-12-04 05:30,50.63043,-96.9807616666667,6.4,10.5,306,974.30,-0.8,78,1.00,0.0,1001.84,119.2
2019-12-04 05:40,50.630435,-96.9807566666667,8.2,14.1,311,974.30,-0.8,78,1.00,0.0,1001.84,119.2
2019-12-04 05:50,50.6304433333333,-96.9807616666667,6.8,9.4,309,974.42,-0.8,79,0.99,0.0,1001.97,119.2
2019-12-04 06:00,50.6304433333333,-96.98076,7.0,10.9,309,974.48,-0.8,79,0.98,0.0,1002.03,90.0
2019-12-04 06:10,50.630445,-96.9807616666667,6.5,8.9,304,974.55,-0.8,79,0.98,0.0,1002.10,90.0
2019-12-04 06:20,50.6304433333333,-96.9807633333333,5.9,9.1,300,974.62,-0.8,80,0.99,0.0,1002.18,90.0
2019-12-04 06:30,50.6304416666667,-96.980765,6.0,10.2,293,974.65,-0.8,80,1.00,0.0,1002.21,90.0
2019-12-04 06:40,50.6304416666667,-96.980765,8.1,12.5,300,974.65,-0.8,79,1.00,0.0,1002.21,90.0
2019-12-04 06:50,50.63044,-96.9807666666667,5.4,8.6,297,974.73,-0.8,80,1.01,0.0,1002.30,90.0
2019-12-04 07:00,50.6304433333333,-96.9807633333333,6.5,11.0,295,974.83,-0.8,80,1.01,0.0,1002.41,48.3
2019-12-04 07:10,50.6304416666667,-96.9807616666667,6.9,11.7,295,974.72,-0.8,79,1.01,0.0,1002.29,48.3
2019-12-04 07:20,50.6304433333333,-96.980765,6.3,11.0,289,974.88,-0.9,80,1.00,0.0,1002.46,48.3
2019-12-04 07:30,50.6304433333333,-96.9807683333333,6.4,9.9,298,974.98,-0.8,80,0.99,0.0,1002.56,48.3
2019-12-04 07:40,50.6304416666667,-96.98077,5.3,9.3,292,975.01,-0.8,80,0.99,0.0,1002.60,48.3
2019-12-04 07:50,50.6304416666667,-96.98077,4.6,7.8,290,975.00,-0.8,80,0.99,0.0,1002.59,48.3
2019-12-04 08:00,50.6304416666667,-96.98077,4.2,7.5,290,974.99,-0.8,80,1.00,0.0,1002.57,311.7
2019-12-04 08:10,50.6304416666667,-96.9807683333333,6.0,8.9,290,975.20,-0.8,80,1.01,0.0,1002.79,311.7
2019-12-04 08:20,50.6304416666667,-96.9807683333333,4.8,8.7,291,975.32,-0.8,80,1.01,0.0,1002.91,311.7
2019-12-04 08:30,50.63044,-96.9807666666667,3.3,5.1,277,975.36,-0.9,81,0.99,0.0,1002.96,311.7
2019-12-04 08:40,50.63044,-96.9807666666667,3.1,5.5,280,975.36,-0.9,81,0.98,0.0,1002.96,311.7
2019-12-04 08:50,50.6304266666667,-96.9807533333333,2.8,3.9,275,975.44,-1.0,81,0.98,0.0,1003.04,311.7
2019-12-04 09:00,50.6304283333333,-96.98076,1.8,3.5,259,975.43,-1.1,81,0.99,0.0,1003.04,161.1
2019-12-04 09:10,50.63043,-96.9807616666667,1.7,2.7,275,975.55,-1.1,82,0.99,0.0,1003.17,161.1
2019-12-04 09:20,50.6304333333333,-96.980765,1.7,2.9,261,975.65,-1.2,82,0.98,0.0,1003.28,161.1
2019-12-04 09:30,50.630435,-96.9807683333333,2.5,3.8,239,975.68,-1.4,83,0.97,0.0,1003.32,161.1
2019-12-04 09:40,50.6304516666667,-96.98079,3.0,4.3,234,975.60,-1.6,85,1.15,0.0,1003.24,161.1
2019-12-04 09:50,50.6304533333333,-96.980785,3.0,4.4,247,975.63,-1.8,87,0.97,0.0,1003.28,161.1
2019-12-04 10:00,50.6304533333333,-96.9807783333333,2.7,4.1,265,975.76,-1.8,88,0.98,0.0,1003.42,310.6
2019-12-04 10:10,50.6304533333333,-96.9807783333333,2.5,4.0,270,975.71,-1.9,88,0.99,0.0,1003.37,310.6
2019-12-04 10:20,50.6304533333333,-96.9807783333333,1.5,2.7,252,975.68,-2.0,88,0.98,0.0,1003.35,310.6
2019-12-04 10:30,50.6304416666667,-96.9807633333333,1.5,2.4,266,975.74,-2.1,89,0.97,0.0,1003.41,310.6
2019-12-04 10:40,50.630445,-96.980775,1.9,3.0,290,975.76,-2.1,89,0.97,0.0,1003.44,310.6
2019-12-04 10:50,50.6304416666667,-96.980775,1.6,3.0,287,975.92,-2.1,89,0.97,0.0,1003.61,310.6
2019-12-04 11:00,50.6304433333333,-96.9807716666667,2.8,4.7,253,976.05,-2.2,89,0.97,0.0,1003.75,270.0
2019-12-04 11:10,50.6304416666667,-96.9807716666667,3.7,6.2,259,976.25,-2.2,88,0.97,0.0,1003.96,270.0
2019-12-04 11:20,50.630465,-96.9807516666667,4.2,6.3,284,976.36,-2.1,87,0.97,0.0,1004.08,270.0
2019-12-04 11:30,50.63045,-96.9807583333333,4.9,6.8,272,976.47,-2.2,87,0.97,0.0,1004.21,270.0
2019-12-04 11:40,50.6304416666667,-96.9807633333333,4.6,7.5,286,976.49,-2.1,87,0.97,0.0,1004.24,270.0
2019-12-04 11:50,50.6304416666667,-96.9807666666667,4.2,7.0,284,976.48,-2.1,86,0.97,0.0,1004.23,270.0
2019-12-04 12:00,50.6304366666667,-96.9807833333333,4.5,6.9,287,976.52,-2.1,86,0.97,0.0,1004.27,302.3
2019-12-04 12:10,50.6304283333333,-96.9807866666667,4.2,6.7,306,976.60,-2.1,86,0.97,0.0,1004.35,302.3
2019-12-04 12:20,50.6304316666667,-96.98079,4.0,6.4,292,976.70,-2.1,86,0.96,0.0,1004.47,302.3
2019-12-04 12:30,50.6304333333333,-96.98078,4.7,7.6,281,976.91,-2.1,86,0.96,0.0,1004.68,302.3
2019-12-04 12:40,50.6304333333333,-96.9807783333333,5.1,7.4,276,977.09,-2.1,86,0.95,0.0,1004.87,302.3
2019-12-04 12:50,50.63044,-96.980755,4.0,5.8,283,977.29,-2.1,86,0.94,0.0,1005.08,302.3
2019-12-04 13:00,50.630445,-96.9807716666667,4.6,9.3,309,977.36,-2.0,85,0.95,0.0,1005.15,143.4
2019-12-04 13:10,50.6304416666667,-96.980775,5.7,10.1,356,977.50,-2.1,88,0.94,0.0,1005.29,143.4
2019-12-04 13:20,50.6304416666667,-96.9807783333333,9.1,10.4,46,977.48,-3.1,98,0.94,0.0,1005.32,143.4
2019-12-04 13:30,50.6304066666667,-96.980765,9.0,10.3,19,978.01,-3.6,99,0.94,0.0,1005.89,143.4
2019-12-04 13:40,50.63042,-96.9807816666667,9.2,11.4,15,978.18,-3.6,98,0.94,0.0,1006.06,143.4
2019-12-04 13:50,50.630425,-96.9807833333333,9.3,10.7,22,978.07,-3.7,99,0.94,0.0,1005.95,143.4
2019-12-04 14:00,50.6304416666667,-96.9807733333333,11.6,13.1,33,977.94,-4.0,97,0.95,0.0,1005.84,0.0
2019-12-04 14:10,50.6304466666667,-96.980775,10.6,12.3,35,978.00,-4.4,98,0.95,0.0,1005.92,0.0
2019-12-04 14:20,50.6304483333333,-96.9807716666667,8.9,10.6,32,978.33,-4.5,97,0.94,0.0,1006.27,0.0
2019-12-04 14:30,50.6304433333333,-96.9807666666667,8.2,9.9,37,978.33,-4.5,98,0.93,0.0,1006.27,0.0
2019-12-04 14:40,50.6304416666667,-96.9807683333333,8.8,9.9,43,978.27,-4.6,97,0.93,0.0,1006.21,0.0
2019-12-04 14:50,50.63044,-96.9807683333333,6.0,8.1,34,978.58,-4.6,97,0.94,0.0,1006.52,0.0
2019-12-04 15:00,50.6304383333333,-96.9807683333333,5.0,5.9,23,979.02,-4.6,97,0.95,0.0,1006.98,66.4
2019-12-04 15:10,50.63043,-96.98079,4.4,5.7,23,979.30,-4.6,96,0.96,0.0,1007.32,66.4
2019-12-04 15:20,50.6304283333333,-96.9807816666667,4.7,6.0,18,979.28,-4.6,95,0.97,0.0,1007.33,66.4
2019-12-04 15:30,50.6304116666667,-96.9807833333333,4.9,6.1,7,979.49,-4.6,95,0.97,0.0,1007.55,66.4
2019-12-04 15:40,50.63042,-96.98078,4.3,5.9,6,979.62,-4.5,95,0.97,0.0,1007.67,66.4
2019-12-04 15:50,50.6304233333333,-96.9807766666667,5.0,6.4,0,979.79,-4.5,95,0.97,0.0,1007.86,66.4
2019-12-04 16:00,50.630425,-96.9807766666667,5.7,6.7,28,979.86,-4.6,94,0.96,0.0,1007.96,142.0
2019-12-04 16:10,50.6304266666667,-96.980775,6.2,7.9,18,980.09,-4.7,94,0.96,0.0,1008.21,142.0
2019-12-04 16:20,50.6304466666667,-96.98078,7.2,8.5,16,980.12,-4.6,93,0.95,0.0,1008.24,142.0
2019-12-04 16:30,50.6304316666667,-96.9807733333333,6.5,7.9,10,980.39,-4.6,93,0.95,0.0,1008.52,142.0
2019-12-04 16:40,50.630435,-96.9807716666667,5.5,7.0,9,980.52,-4.4,92,0.96,0.0,1008.65,142.0
2019-12-04 16:50,50.6304383333333,-96.980765,6.1,7.8,23,980.42,-4.4,93,0.96,0.0,1008.54,142.0
2019-12-04 17:00,50.6304383333333,-96.980765,7.7,9.3,22,980.46,-4.4,95,0.95,0.0,1008.58,90.0
2019-12-04 17:10,50.6304383333333,-96.9807683333333,8.2,9.2,20,980.52,-4.7,95,0.93,0.0,1008.66,90.0
2019-12-04 17:20,50.6304383333333,-96.9807683333333,7.1,8.6,16,980.74,-4.8,96,0.92,0.0,1008.89,90.0
2019-12-04 17:30,50.6304383333333,-96.98077,5.4,7.5,23,980.91,-4.7,96,0.92,0.0,1009.06,90.0
2019-12-04 17:40,50.6304316666667,-96.9807783333333,3.9,4.7,28,981.06,-4.7,96,0.93,0.0,1009.20,90.0
2019-12-04 17:50,50.630425,-96.980775,3.9,5.5,32,981.20,-4.6,96,0.93,0.0,1009.35,90.0
2019-12-04 18:00,50.6304283333333,-96.9807716666667,3.8,5.4,45,981.30,-4.5,95,0.94,0.0,1009.45,360.0
2019-12-04 18:10,50.6304283333333,-96.9807683333333,5.1,6.8,42,981.21,-4.4,96,0.94,0.0,1009.35,360.0
2019-12-04 18:20,50.6304283333333,-96.9807716666667,6.3,7.4,39,981.12,-4.6,96,0.93,0.0,1009.27,360.0
2019-12-04 18:30,50.63045,-96.9807733333333,5.9,7.7,41,981.23,-4.5,96,0.93,0.0,1009.37,360.0
2019-12-04 18:40,50.6304516666667,-96.9807666666667,5.7,6.4,41,981.35,-4.5,95,0.93,0.0,1009.49,360.0
2019-12-04 18:50,50.63042,-96.9807733333333,5.8,6.7,38,981.39,-4.5,96,0.92,0.0,1009.53,360.0
2019-12-04 19:00,50.6304283333333,-96.9807733333333,6.9,7.8,31,981.35,-4.6,96,0.92,0.0,1009.52,90.0
2019-12-04 19:10,50.630435,-96.9807733333333,6.9,8.1,27,981.41,-4.7,97,0.93,0.0,1009.58,90.0
2019-12-04 19:20,50.6304316666667,-96.980775,5.4,6.5,25,981.48,-4.7,97,0.93,0.0,1009.66,90.0
2019-12-04 19:30,50.6304266666667,-96.98078,6.2,7.5,29,981.38,-4.5,96,0.94,0.0,1009.53,90.0
2019-12-04 19:40,50.6304233333333,-96.9807683333333,6.1,7.1,27,981.50,-4.5,97,0.94,0.0,1009.65,90.0
2019-12-04 19:50,50.630425,-96.98077,5.8,7.3,27,981.67,-4.5,97,0.93,0.0,1009.83,90.0
2019-12-04 20:00,50.630405,-96.98078,5.4,6.7,35,981.76,-4.5,97,0.93,0.0,1009.92,360.0
2019-12-04 20:10,50.63043,-96.9807766666667,4.4,5.7,42,981.65,-4.4,96,0.93,0.0,1009.80,360.0
2019-12-04 20:20,50.6304383333333,-96.98077,5.0,6.8,42,981.71,-4.5,96,0.94,0.0,1009.87,360.0
2019-12-04 20:30,50.6304416666667,-96.9807683333333,2.4,4.3,47,981.86,-4.5,96,0.95,0.0,1010.02,360.0
2019-12-04 20:40,50.6304383333333,-96.9807666666667,1.1,2.4,39,981.99,-4.1,94,0.95,0.0,1010.14,360.0
2019-12-04 20:50,50.630435,-96.9807683333333,1.4,2.7,78,981.98,-3.9,93,0.94,0.0,1010.12,360.0
2019-12-04 21:00,50.6304333333333,-96.9807666666667,1.2,2.2,73,982.04,-3.8,93,0.94,0.0,1010.18,12.6
2019-12-04 21:10,50.63044,-96.980765,0.2,1.4,30,982.04,-3.5,91,0.94,0.0,1010.17,12.6
2019-12-04 21:20,50.6304416666667,-96.9807616666667,2.2,6.6,267,982.06,-3.4,91,0.94,0.0,1010.17,12.6
2019-12-04 21:30,50.6304433333333,-96.980765,4.0,7.2,227,982.22,-3.5,91,0.94,0.0,1010.34,12.6
2019-12-04 21:40,50.6304433333333,-96.980765,4.1,5.9,171,982.31,-4.1,94,0.94,0.0,1010.47,12.6
2019-12-04 21:50,50.630445,-96.980765,5.3,6.4,154,982.08,-4.6,96,0.95,0.0,1010.25,12.6
2019-12-04 22:00,50.630445,-96.980765,6.0,7.3,154,982.02,-4.7,97,0.96,0.0,1010.19,23.5
2019-12-04 22:10,50.630445,-96.9807666666667,5.7,7.1,160,981.98,-4.7,97,0.96,0.0,1010.16,23.5
2019-12-04 22:20,50.6304433333333,-96.9807683333333,6.7,7.8,173,981.92,-4.8,98,0.95,0.0,1010.10,23.5
2019-12-04 22:30,50.6304433333333,-96.9807683333333,7.0,7.9,178,981.82,-5.1,99,0.94,0.0,1010.00,23.5
2019-12-04 22:40,50.630445,-96.98077,7.5,8.7,179,981.88,-5.4,99,0.95,0.0,1010.06,23.5
2019-12-04 22:50,50.630445,-96.98077,7.2,8.1,177,981.75,-5.7,99,0.96,0.0,1009.94,23.5
2019-12-04 23:00,50.630445,-96.98077,7.2,8.1,183,981.85,-5.9,99,0.94,0.0,1010.03,18.5
2019-12-04 23:10,50.630445,-96.98077,5.4,6.8,180,981.92,-5.9,99,0.95,0.0,1010.10,18.5
2019-12-04 23:20,50.630445,-96.98077,3.8,5.0,180,981.86,-6.0,99,0.95,0.0,1010.05,18.5
2019-12-04 23:30,50.630445,-96.98077,2.4,4.5,187,982.11,-6.0,99,0.96,0.0,1010.34,18.5
